contact:dominique.lefevre@mio.osupytheas.fr, maurice.libes@osupytheas.fr, didier.mallarino@osupytheas.fr
Project:EMSO http://www.emso-fr.org/EMSO-France
Depth: 2436.0 m
Title:EMSO Ligure Ouest : Data MII capteur CSTAR
DateTime,Latitude,Longitude,Instrument_Serial,Reference_Counts,Signal_Counts,Corrected_Signal_raw_counts,Calculated_Beam_c_inverse_meters,Internal_thermistor_counts
DateTime,Latitude,Longitude,Instrument_Serial,Reference_Counts,Signal_Counts,Corrected_Signal_raw_counts,Calculated_Beam_c_inverse_meters,Internal_thermistor_counts
2023-05-05T00:01:17,42.805,6.029,CST-1368DR,4307,4703,11594,01.191,551
2023-05-05T00:04:19,42.805,6.029,CST-1368DR,4307,4704,11597,01.190,551
2023-05-05T00:07:21,42.805,6.029,CST-1368DR,4306,4701,11592,01.192,552
2023-05-05T00:10:22,42.805,6.029,CST-1368DR,4307,4701,11589,01.193,552
2023-05-05T00:13:24,42.805,6.029,CST-1368DR,4307,4704,11595,01.191,552
2023-05-05T00:16:25,42.805,6.029,CST-1368DR,4307,4703,11594,01.191,551
2023-05-05T00:19:27,42.805,6.029,CST-1368DR,4307,4701,11589,01.193,552
2023-05-05T00:22:28,42.805,6.029,CST-1368DR,4307,4701,11588,01.193,552
2023-05-05T00:25:30,42.805,6.029,CST-1368DR,4307,4696,11576,01.197,551
2023-05-05T00:28:32,42.805,6.029,CST-1368DR,4307,4699,11584,01.195,552
2023-05-05T00:31:33,42.805,6.029,CST-1368DR,4307,4700,11586,01.194,552
2023-05-05T00:34:35,42.805,6.029,CST-1368DR,4307,4700,11585,01.194,552
2023-05-05T00:37:36,42.805,6.029,CST-1368DR,4307,4698,11581,01.196,551
2023-05-05T00:40:38,42.805,6.029,CST-1368DR,4307,4698,11581,01.196,552
2023-05-05T00:43:39,42.805,6.029,CST-1368DR,4307,4699,11584,01.195,552
2023-05-05T00:46:41,42.805,6.029,CST-1368DR,4307,4697,11578,01.197,551
2023-05-05T00:49:43,42.805,6.029,CST-1368DR,4307,4702,11591,01.192,552
2023-05-05T00:52:44,42.805,6.029,CST-1368DR,4307,4698,11582,01.195,552
2023-05-05T00:55:46,42.805,6.029,CST-1368DR,4306,4697,11581,01.196,552
2023-05-05T00:58:47,42.805,6.029,CST-1368DR,4307,4695,11575,01.198,552
2023-05-05T01:01:49,42.805,6.029,CST-1368DR,4307,4700,11586,01.194,552
2023-05-05T01:04:51,42.805,6.029,CST-1368DR,4307,4699,11584,01.195,552
2023-05-05T01:07:52,42.805,6.029,CST-1368DR,4307,4700,11585,01.194,552
2023-05-05T01:10:54,42.805,6.029,CST-1368DR,4307,4703,11593,01.192,552
2023-05-05T01:13:55,42.805,6.029,CST-1368DR,4307,4697,11578,01.197,551
2023-05-05T01:16:57,42.805,6.029,CST-1368DR,4307,4699,11584,01.195,552
2023-05-05T01:19:58,42.805,6.029,CST-1368DR,4307,4698,11581,01.196,552
2023-05-05T01:23:00,42.805,6.029,CST-1368DR,4307,4699,11583,01.195,551
2023-05-05T01:26:02,42.805,6.029,CST-1368DR,4307,4698,11580,01.196,551
2023-05-05T01:29:03,42.805,6.029,CST-1368DR,4306,4698,11584,01.195,552
2023-05-05T01:32:05,42.805,6.029,CST-1368DR,4306,4698,11584,01.195,552
2023-05-05T01:35:06,42.805,6.029,CST-1368DR,4306,4695,11576,01.197,552
2023-05-05T01:38:08,42.805,6.029,CST-1368DR,4307,4697,11578,01.197,552
2023-05-05T01:41:09,42.805,6.029,CST-1368DR,4306,4694,11575,01.198,552
2023-05-05T01:44:11,42.805,6.029,CST-1368DR,4306,4696,11579,01.196,551
2023-05-05T01:47:13,42.805,6.029,CST-1368DR,4306,4695,11577,01.197,552
2023-05-05T01:50:14,42.805,6.029,CST-1368DR,4306,4696,11580,01.196,551
2023-05-05T01:53:16,42.805,6.029,CST-1368DR,4307,4693,11568,01.200,552
2023-05-05T01:56:17,42.805,6.029,CST-1368DR,4306,4693,11572,01.199,552
2023-05-05T01:59:19,42.805,6.029,CST-1368DR,4306,4696,11578,01.197,551
2023-05-05T02:02:20,42.805,6.029,CST-1368DR,4306,4693,11572,01.199,552
2023-05-05T02:05:22,42.805,6.029,CST-1368DR,4306,4697,11581,01.196,551
2023-05-05T02:08:24,42.805,6.029,CST-1368DR,4306,4693,11572,01.199,551
2023-05-05T02:11:25,42.805,6.029,CST-1368DR,4307,4695,11573,01.198,552
2023-05-05T02:14:27,42.805,6.029,CST-1368DR,4306,4696,11578,01.197,552
2023-05-05T02:17:28,42.805,6.029,CST-1368DR,4306,4695,11575,01.198,551
2023-05-05T02:20:30,42.805,6.029,CST-1368DR,4306,4695,11575,01.198,551
2023-05-05T02:23:32,42.805,6.029,CST-1368DR,4306,4691,11567,01.201,552
2023-05-05T02:26:33,42.805,6.029,CST-1368DR,4306,4695,11576,01.197,551
2023-05-05T02:29:35,42.805,6.029,CST-1368DR,4306,4693,11570,01.200,551
2023-05-05T02:32:36,42.805,6.029,CST-1368DR,4306,4690,11564,01.202,552
2023-05-05T02:35:38,42.805,6.029,CST-1368DR,4306,4695,11576,01.197,552
2023-05-05T02:38:39,42.805,6.029,CST-1368DR,4306,4698,11583,01.195,551
2023-05-05T02:41:41,42.805,6.029,CST-1368DR,4306,4700,11588,01.193,552
2023-05-05T02:44:43,42.805,6.029,CST-1368DR,4306,4693,11572,01.199,552
2023-05-05T02:47:44,42.805,6.029,CST-1368DR,4307,4693,11568,01.200,552
2023-05-05T02:50:46,42.805,6.029,CST-1368DR,4306,4693,11572,01.199,551
2023-05-05T02:53:47,42.805,6.029,CST-1368DR,4306,4679,11538,01.211,552
2023-05-05T02:56:49,42.805,6.029,CST-1368DR,4306,4693,11570,01.200,552
2023-05-05T02:59:50,42.805,6.029,CST-1368DR,4306,4693,11570,01.200,552
2023-05-05T03:02:52,42.805,6.029,CST-1368DR,4306,4691,11567,01.201,552
2023-05-05T03:05:54,42.805,6.029,CST-1368DR,4306,4695,11575,01.198,552
2023-05-05T03:08:55,42.805,6.029,CST-1368DR,4307,4724,11645,01.174,552
2023-05-05T03:11:57,42.805,6.029,CST-1368DR,4307,4726,11650,01.172,551
2023-05-05T03:14:58,42.805,6.029,CST-1368DR,4307,4717,11627,01.180,552
2023-05-05T03:18:00,42.805,6.029,CST-1368DR,4307,4716,11626,01.180,552
2023-05-05T03:21:01,42.805,6.029,CST-1368DR,4307,4732,11664,01.167,552
2023-05-05T03:24:03,42.805,6.029,CST-1368DR,4307,4731,11662,01.168,552
2023-05-05T03:27:05,42.805,6.029,CST-1368DR,4307,4733,11666,01.166,551
2023-05-05T03:30:06,42.805,6.029,CST-1368DR,4307,4733,11667,01.166,552
2023-05-05T03:33:08,42.805,6.029,CST-1368DR,4307,4730,11660,01.169,552
2023-05-05T03:36:09,42.805,6.029,CST-1368DR,4307,4732,11665,01.167,551
2023-05-05T03:39:11,42.805,6.029,CST-1368DR,4307,4730,11660,01.169,552
2023-05-05T03:42:13,42.805,6.029,CST-1368DR,4307,4732,11666,01.166,552
2023-05-05T03:45:14,42.805,6.029,CST-1368DR,4307,4733,11666,01.166,552
2023-05-05T03:48:16,42.805,6.029,CST-1368DR,4307,4733,11668,01.166,552
2023-05-05T03:51:17,42.805,6.029,CST-1368DR,4307,4734,11669,01.165,552
2023-05-05T03:54:19,42.805,6.029,CST-1368DR,4307,4735,11673,01.164,551
2023-05-05T03:57:20,42.805,6.029,CST-1368DR,4307,4732,11664,01.167,551
2023-05-05T04:00:22,42.805,6.029,CST-1368DR,4307,4732,11666,01.166,552
2023-05-05T04:03:24,42.805,6.029,CST-1368DR,4307,4733,11668,01.166,552
2023-05-05T04:06:25,42.805,6.029,CST-1368DR,4307,4729,11658,01.169,552
2023-05-05T04:09:27,42.805,6.029,CST-1368DR,4307,4752,11714,01.150,551
2023-05-05T04:12:28,42.805,6.029,CST-1368DR,4307,4752,11714,01.150,552
2023-05-05T04:15:30,42.805,6.029,CST-1368DR,4307,4753,11716,01.149,552
2023-05-05T04:18:32,42.805,6.029,CST-1368DR,4307,4752,11713,01.150,552
2023-05-05T04:21:33,42.805,6.029,CST-1368DR,4307,4753,11716,01.149,552
2023-05-05T04:24:35,42.805,6.029,CST-1368DR,4307,4752,11714,01.150,552
2023-05-05T04:27:36,42.805,6.029,CST-1368DR,4307,4749,11707,01.152,552
2023-05-05T04:30:39,42.805,6.029,CST-1368DR,4307,4752,11714,01.150,551
2023-05-05T04:33:40,42.805,6.029,CST-1368DR,4307,4752,11714,01.150,552
2023-05-05T04:36:42,42.805,6.029,CST-1368DR,4307,4752,11715,01.150,552
2023-05-05T04:39:43,42.805,6.029,CST-1368DR,4307,4752,11715,01.150,552
2023-05-05T04:42:45,42.805,6.029,CST-1368DR,4307,4752,11714,01.150,552
2023-05-05T04:45:47,42.805,6.029,CST-1368DR,4307,4753,11717,01.149,552
2023-05-05T04:48:48,42.805,6.029,CST-1368DR,4307,4752,11715,01.150,551
2023-05-05T04:51:50,42.805,6.029,CST-1368DR,4307,4750,11710,01.151,552
2023-05-05T04:54:51,42.805,6.029,CST-1368DR,4307,4752,11715,01.150,552
2023-05-05T04:57:53,42.805,6.029,CST-1368DR,4307,4754,11718,01.149,552
2023-05-05T05:00:54,42.805,6.029,CST-1368DR,4307,4752,11713,01.150,552
2023-05-05T05:03:56,42.805,6.029,CST-1368DR,4307,4752,11714,01.150,552
2023-05-05T05:06:58,42.805,6.029,CST-1368DR,4307,4754,11719,01.148,552
2023-05-05T05:09:59,42.805,6.029,CST-1368DR,4307,4753,11716,01.149,552
2023-05-05T05:13:01,42.805,6.029,CST-1368DR,4307,4751,11711,01.151,552
2023-05-05T05:16:02,42.805,6.029,CST-1368DR,4307,4753,11716,01.149,551
2023-05-05T05:19:04,42.805,6.029,CST-1368DR,4307,4751,11712,01.151,552
2023-05-05T05:22:05,42.805,6.029,CST-1368DR,4307,4753,11716,01.149,551
2023-05-05T05:25:07,42.805,6.029,CST-1368DR,4307,4751,11712,01.151,552
2023-05-05T05:28:09,42.805,6.029,CST-1368DR,4307,4751,11712,01.151,551
2023-05-05T05:31:10,42.805,6.029,CST-1368DR,4307,4752,11715,01.150,551
2023-05-05T05:34:12,42.805,6.029,CST-1368DR,4307,4752,11713,01.150,552
2023-05-05T05:37:13,42.805,6.029,CST-1368DR,4307,4751,11711,01.151,551
2023-05-05T05:40:15,42.805,6.029,CST-1368DR,4307,4751,11712,01.151,551
2023-05-05T05:43:17,42.805,6.029,CST-1368DR,4307,4752,11714,01.150,551
2023-05-05T05:46:18,42.805,6.029,CST-1368DR,4307,4747,11703,01.154,552
2023-05-05T05:49:20,42.805,6.029,CST-1368DR,4307,4746,11700,01.155,551
2023-05-05T05:52:21,42.805,6.029,CST-1368DR,4307,4752,11714,01.150,552
2023-05-05T05:55:23,42.805,6.029,CST-1368DR,4307,4753,11716,01.149,552
2023-05-05T05:58:24,42.805,6.029,CST-1368DR,4307,4752,11715,01.150,552
2023-05-05T06:01:26,42.805,6.029,CST-1368DR,4307,4752,11714,01.150,551
2023-05-05T06:04:28,42.805,6.029,CST-1368DR,4307,4752,11715,01.150,551
2023-05-05T06:07:29,42.805,6.029,CST-1368DR,4307,4752,11713,01.150,552
2023-05-05T06:10:31,42.805,6.029,CST-1368DR,4307,4753,11716,01.149,552
2023-05-05T06:13:32,42.805,6.029,CST-1368DR,4307,4752,11715,01.150,551
2023-05-05T06:16:34,42.805,6.029,CST-1368DR,4307,4752,11714,01.150,551
2023-05-05T06:19:35,42.805,6.029,CST-1368DR,4307,4752,11713,01.150,552
2023-05-05T06:22:37,42.805,6.029,CST-1368DR,4307,4753,11716,01.149,552
2023-05-05T06:25:39,42.805,6.029,CST-1368DR,4307,4753,11717,01.149,552
2023-05-05T06:28:40,42.805,6.029,CST-1368DR,4307,4754,11719,01.148,552
2023-05-05T06:31:42,42.805,6.029,CST-1368DR,4307,4753,11716,01.149,551
2023-05-05T06:34:43,42.805,6.029,CST-1368DR,4307,4753,11716,01.149,552
2023-05-05T06:37:45,42.805,6.029,CST-1368DR,4307,4748,11704,01.153,552
2023-05-05T06:40:47,42.805,6.029,CST-1368DR,4307,4753,11717,01.149,551
2023-05-05T06:43:48,42.805,6.029,CST-1368DR,4307,4753,11717,01.149,552
2023-05-05T06:46:50,42.805,6.029,CST-1368DR,4307,4752,11715,01.150,552
2023-05-05T06:49:51,42.805,6.029,CST-1368DR,4307,4750,11708,01.152,552
2023-05-05T06:52:53,42.805,6.029,CST-1368DR,4307,4750,11709,01.152,552
2023-05-05T06:55:54,42.805,6.029,CST-1368DR,4307,4749,11706,01.153,552
2023-05-05T06:58:56,42.805,6.029,CST-1368DR,4307,4748,11705,01.153,552
2023-05-05T07:01:58,42.805,6.029,CST-1368DR,4307,4749,11707,01.152,552
2023-05-05T07:04:59,42.805,6.029,CST-1368DR,4307,4750,11708,01.152,552
2023-05-05T07:08:01,42.805,6.029,CST-1368DR,4307,4750,11709,01.152,552
2023-05-05T07:11:02,42.805,6.029,CST-1368DR,4307,4750,11709,01.152,552
2023-05-05T07:14:04,42.805,6.029,CST-1368DR,4307,4749,11708,01.152,551
2023-05-05T07:17:05,42.805,6.029,CST-1368DR,4307,4751,11711,01.151,552
2023-05-05T07:20:07,42.805,6.029,CST-1368DR,4307,4749,11707,01.152,551
2023-05-05T07:23:09,42.805,6.029,CST-1368DR,4307,4749,11706,01.153,552
2023-05-05T07:26:10,42.805,6.029,CST-1368DR,4307,4750,11709,01.152,551
2023-05-05T07:29:12,42.805,6.029,CST-1368DR,4307,4750,11709,01.152,552
2023-05-05T07:32:13,42.805,6.029,CST-1368DR,4307,4750,11708,01.152,551
2023-05-05T07:35:15,42.805,6.029,CST-1368DR,4307,4749,11708,01.152,551
2023-05-05T07:38:17,42.805,6.029,CST-1368DR,4307,4751,11711,01.151,552
2023-05-05T07:41:18,42.805,6.029,CST-1368DR,4307,4750,11708,01.152,552
2023-05-05T07:44:20,42.805,6.029,CST-1368DR,4307,4749,11708,01.152,552
2023-05-05T07:47:21,42.805,6.029,CST-1368DR,4307,4749,11707,01.152,551
2023-05-05T07:50:23,42.805,6.029,CST-1368DR,4307,4748,11703,01.154,551
2023-05-05T07:53:24,42.805,6.029,CST-1368DR,4307,4749,11706,01.153,552
2023-05-05T07:56:26,42.805,6.029,CST-1368DR,4307,4750,11709,01.152,551
2023-05-05T07:59:28,42.805,6.029,CST-1368DR,4307,4750,11710,01.151,552
2023-05-05T08:02:29,42.805,6.029,CST-1368DR,4307,4749,11708,01.152,552
2023-05-05T08:05:31,42.805,6.029,CST-1368DR,4307,4750,11708,01.152,551
2023-05-05T08:08:32,42.805,6.029,CST-1368DR,4307,4749,11707,01.152,552
2023-05-05T08:11:34,42.805,6.029,CST-1368DR,4307,4750,11708,01.152,551
2023-05-05T08:14:35,42.805,6.029,CST-1368DR,4307,4749,11707,01.152,552
2023-05-05T08:17:37,42.805,6.029,CST-1368DR,4307,4749,11707,01.152,552
2023-05-05T08:20:39,42.805,6.029,CST-1368DR,4307,4749,11706,01.153,552
2023-05-05T08:23:40,42.805,6.029,CST-1368DR,4307,4749,11706,01.153,552
2023-05-05T08:26:42,42.805,6.029,CST-1368DR,4307,4749,11707,01.152,551
2023-05-05T08:29:43,42.805,6.029,CST-1368DR,4307,4749,11708,01.152,552
2023-05-05T08:32:45,42.805,6.029,CST-1368DR,4307,4749,11706,01.153,552
2023-05-05T08:35:47,42.805,6.029,CST-1368DR,4307,4749,11706,01.153,552
2023-05-05T08:38:49,42.805,6.029,CST-1368DR,4307,4750,11709,01.152,552
2023-05-05T08:41:50,42.805,6.029,CST-1368DR,4307,4750,11708,01.152,552
2023-05-05T08:44:52,42.805,6.029,CST-1368DR,4307,4749,11708,01.152,552
2023-05-05T08:47:53,42.805,6.029,CST-1368DR,4307,4748,11704,01.153,552
2023-05-05T08:50:55,42.805,6.029,CST-1368DR,4307,4749,11706,01.153,552
2023-05-05T08:53:56,42.805,6.029,CST-1368DR,4307,4748,11704,01.153,552
2023-05-05T08:56:58,42.805,6.029,CST-1368DR,4307,4747,11702,01.154,552
2023-05-05T09:00:00,42.805,6.029,CST-1368DR,4307,4747,11703,01.154,551
2023-05-05T09:03:01,42.805,6.029,CST-1368DR,4307,4750,11708,01.152,551
2023-05-05T09:06:03,42.805,6.029,CST-1368DR,4307,4750,11710,01.151,551
2023-05-05T09:09:04,42.805,6.029,CST-1368DR,4307,4749,11706,01.153,552
2023-05-05T09:12:06,42.805,6.029,CST-1368DR,4307,4750,11710,01.151,552
2023-05-05T09:15:07,42.805,6.029,CST-1368DR,4307,4750,11709,01.152,552
2023-05-05T09:18:09,42.805,6.029,CST-1368DR,4307,4750,11709,01.152,552
2023-05-05T09:21:11,42.805,6.029,CST-1368DR,4307,4749,11706,01.153,552
2023-05-05T09:24:12,42.805,6.029,CST-1368DR,4307,4750,11710,01.151,552
2023-05-05T09:27:14,42.805,6.029,CST-1368DR,4307,4750,11710,01.151,551
2023-05-05T09:30:15,42.805,6.029,CST-1368DR,4307,4746,11700,01.155,551
2023-05-05T09:33:17,42.805,6.029,CST-1368DR,4307,4749,11706,01.153,552
2023-05-05T09:36:18,42.805,6.029,CST-1368DR,4307,4750,11710,01.151,552
2023-05-05T09:39:20,42.805,6.029,CST-1368DR,4307,4749,11707,01.152,551
2023-05-05T09:42:22,42.805,6.029,CST-1368DR,4307,4749,11706,01.153,551
2023-05-05T09:45:23,42.805,6.029,CST-1368DR,4307,4749,11706,01.153,552
2023-05-05T09:48:25,42.805,6.029,CST-1368DR,4307,4749,11708,01.152,551
2023-05-05T09:51:26,42.805,6.029,CST-1368DR,4307,4749,11708,01.152,551
2023-05-05T09:54:28,42.805,6.029,CST-1368DR,4307,4750,11710,01.151,552
2023-05-05T09:57:30,42.805,6.029,CST-1368DR,4307,4749,11708,01.152,552
2023-05-05T10:00:31,42.805,6.029,CST-1368DR,4307,4750,11708,01.152,552
2023-05-05T10:03:33,42.805,6.029,CST-1368DR,4307,4750,11710,01.151,552
2023-05-05T10:06:34,42.805,6.029,CST-1368DR,4307,4750,11710,01.151,552
2023-05-05T10:09:36,42.805,6.029,CST-1368DR,4307,4749,11706,01.153,552
2023-05-05T10:12:37,42.805,6.029,CST-1368DR,4307,4750,11708,01.152,552
2023-05-05T10:15:39,42.805,6.029,CST-1368DR,4307,4751,11711,01.151,551
2023-05-05T10:18:41,42.805,6.029,CST-1368DR,4307,4749,11708,01.152,552
2023-05-05T10:21:42,42.805,6.029,CST-1368DR,4307,4750,11709,01.152,552
2023-05-05T10:24:44,42.805,6.029,CST-1368DR,4307,4750,11710,01.151,552
2023-05-05T10:27:45,42.805,6.029,CST-1368DR,4307,4750,11708,01.152,552
2023-05-05T10:30:47,42.805,6.029,CST-1368DR,4307,4750,11709,01.152,551
2023-05-05T10:33:48,42.805,6.029,CST-1368DR,4307,4750,11708,01.152,551
2023-05-05T10:36:50,42.805,6.029,CST-1368DR,4307,4749,11708,01.152,552
2023-05-05T10:39:52,42.805,6.029,CST-1368DR,4307,4749,11707,01.152,552
2023-05-05T10:42:53,42.805,6.029,CST-1368DR,4307,4749,11706,01.153,551
2023-05-05T10:45:55,42.805,6.029,CST-1368DR,4307,4749,11708,01.152,552
2023-05-05T10:48:56,42.805,6.029,CST-1368DR,4307,4750,11708,01.152,552
2023-05-05T10:51:58,42.805,6.029,CST-1368DR,4307,4750,11709,01.152,552
2023-05-05T10:54:59,42.805,6.029,CST-1368DR,4307,4749,11707,01.152,552
2023-05-05T10:58:01,42.805,6.029,CST-1368DR,4307,4749,11706,01.153,552
2023-05-05T11:01:03,42.805,6.029,CST-1368DR,4307,4750,11708,01.152,552
2023-05-05T11:04:04,42.805,6.029,CST-1368DR,4307,4749,11708,01.152,551
2023-05-05T11:07:06,42.805,6.029,CST-1368DR,4307,4749,11707,01.152,552
2023-05-05T11:10:07,42.805,6.029,CST-1368DR,4307,4749,11707,01.152,551
2023-05-05T11:13:09,42.805,6.029,CST-1368DR,4307,4750,11709,01.152,552
2023-05-05T11:16:11,42.805,6.029,CST-1368DR,4307,4749,11706,01.153,551
2023-05-05T11:19:12,42.805,6.029,CST-1368DR,4307,4748,11705,01.153,552
2023-05-05T11:22:14,42.805,6.029,CST-1368DR,4307,4749,11707,01.152,552
2023-05-05T11:25:15,42.805,6.029,CST-1368DR,4307,4749,11707,01.152,552
2023-05-05T11:28:17,42.805,6.029,CST-1368DR,4307,4749,11706,01.153,552
2023-05-05T11:31:18,42.805,6.029,CST-1368DR,4307,4748,11704,01.153,552
2023-05-05T11:34:20,42.805,6.029,CST-1368DR,4306,4749,11708,01.152,551
2023-05-05T11:37:22,42.805,6.029,CST-1368DR,4307,4749,11708,01.152,552
2023-05-05T11:40:23,42.805,6.029,CST-1368DR,4307,4749,11706,01.153,552
2023-05-05T11:43:25,42.805,6.029,CST-1368DR,4307,4749,11706,01.153,552
2023-05-05T11:46:26,42.805,6.029,CST-1368DR,4307,4748,11704,01.153,552
2023-05-05T11:49:28,42.805,6.029,CST-1368DR,4307,4747,11702,01.154,551
2023-05-05T11:52:29,42.805,6.029,CST-1368DR,4306,4747,11705,01.153,552
2023-05-05T11:55:31,42.805,6.029,CST-1368DR,4306,4747,11705,01.153,551
2023-05-05T11:58:33,42.805,6.029,CST-1368DR,4306,4750,11711,01.151,552
2023-05-05T12:01:34,42.805,6.029,CST-1368DR,4307,4747,11702,01.154,552
2023-05-05T12:04:36,42.805,6.029,CST-1368DR,4307,4749,11707,01.152,552
2023-05-05T12:07:37,42.805,6.029,CST-1368DR,4306,4750,11712,01.151,551
2023-05-05T12:10:39,42.805,6.029,CST-1368DR,4307,4749,11708,01.152,551
2023-05-05T12:13:41,42.805,6.029,CST-1368DR,4307,4748,11705,01.153,551
2023-05-05T12:16:42,42.805,6.029,CST-1368DR,4306,4749,11710,01.151,552
2023-05-05T12:19:44,42.805,6.029,CST-1368DR,4306,4749,11709,01.152,552
2023-05-05T12:22:45,42.805,6.029,CST-1368DR,4306,4749,11708,01.152,552
2023-05-05T12:25:47,42.805,6.029,CST-1368DR,4306,4748,11708,01.152,551
2023-05-05T12:28:48,42.805,6.029,CST-1368DR,4306,4748,11708,01.152,552
2023-05-05T12:31:50,42.805,6.029,CST-1368DR,4306,4749,11708,01.152,552
2023-05-05T12:34:52,42.805,6.029,CST-1368DR,4307,4749,11706,01.153,551
2023-05-05T12:37:53,42.805,6.029,CST-1368DR,4307,4749,11706,01.153,552
2023-05-05T12:40:55,42.805,6.029,CST-1368DR,4307,4749,11707,01.152,552
2023-05-05T12:43:56,42.805,6.029,CST-1368DR,4306,4749,11710,01.151,551
2023-05-05T12:46:58,42.805,6.029,CST-1368DR,4307,4749,11706,01.153,552
2023-05-05T12:49:59,42.805,6.029,CST-1368DR,4307,4750,11708,01.152,552
2023-05-05T12:53:01,42.805,6.029,CST-1368DR,4306,4749,11710,01.151,552
2023-05-05T12:56:03,42.805,6.029,CST-1368DR,4306,4749,11710,01.151,551
2023-05-05T12:59:04,42.805,6.029,CST-1368DR,4306,4750,11711,01.151,552
2023-05-05T13:02:06,42.805,6.029,CST-1368DR,4307,4749,11707,01.152,552
2023-05-05T13:05:07,42.805,6.029,CST-1368DR,4306,4742,11693,01.157,552
2023-05-05T13:08:09,42.805,6.029,CST-1368DR,4306,4749,11708,01.152,552
2023-05-05T13:11:11,42.805,6.029,CST-1368DR,4306,4749,11708,01.152,551
2023-05-05T13:14:12,42.805,6.029,CST-1368DR,4306,4749,11709,01.152,552
2023-05-05T13:17:14,42.805,6.029,CST-1368DR,4307,4749,11707,01.152,552
2023-05-05T13:20:15,42.805,6.029,CST-1368DR,4306,4749,11710,01.151,552
2023-05-05T13:23:17,42.805,6.029,CST-1368DR,4306,4665,11503,01.223,552
2023-05-05T13:26:18,42.805,6.029,CST-1368DR,4307,4750,11709,01.152,552
2023-05-05T13:29:20,42.805,6.029,CST-1368DR,4306,4749,11709,01.152,552
2023-05-05T13:32:22,42.805,6.029,CST-1368DR,4306,4750,11712,01.151,551
2023-05-05T13:35:23,42.805,6.029,CST-1368DR,4307,4750,11709,01.152,552
2023-05-05T13:38:25,42.805,6.029,CST-1368DR,4307,4750,11709,01.152,552
2023-05-05T13:41:26,42.805,6.029,CST-1368DR,4307,4750,11710,01.151,552
2023-05-05T13:44:28,42.805,6.029,CST-1368DR,4307,4750,11710,01.151,551
2023-05-05T13:47:29,42.805,6.029,CST-1368DR,4306,4749,11710,01.151,551
2023-05-05T13:50:31,42.805,6.029,CST-1368DR,4306,4748,11708,01.152,552
2023-05-05T13:53:33,42.805,6.029,CST-1368DR,4306,4750,11712,01.151,551
2023-05-05T13:56:34,42.805,6.029,CST-1368DR,4306,4750,11712,01.151,552
2023-05-05T13:59:36,42.805,6.029,CST-1368DR,4306,4749,11710,01.151,552
2023-05-05T14:02:37,42.805,6.029,CST-1368DR,4306,4749,11710,01.151,552
2023-05-05T14:05:39,42.805,6.029,CST-1368DR,4306,4749,11709,01.152,551
2023-05-05T14:08:41,42.805,6.029,CST-1368DR,4306,4749,11710,01.151,551
2023-05-05T14:11:42,42.805,6.029,CST-1368DR,4306,4748,11708,01.152,552
2023-05-05T14:14:44,42.805,6.029,CST-1368DR,4306,4749,11709,01.152,552
2023-05-05T14:17:45,42.805,6.029,CST-1368DR,4306,4713,11621,01.182,552
2023-05-05T14:20:47,42.805,6.029,CST-1368DR,4306,4750,11711,01.151,551
2023-05-05T14:23:48,42.805,6.029,CST-1368DR,4306,4749,11709,01.152,551
2023-05-05T14:26:50,42.805,6.029,CST-1368DR,4306,4748,11707,01.152,552
2023-05-05T14:29:52,42.805,6.029,CST-1368DR,4306,4748,11707,01.152,552
2023-05-05T14:32:53,42.805,6.029,CST-1368DR,4306,4747,11704,01.153,552
2023-05-05T14:35:54,42.805,6.029,CST-1368DR,4306,4746,11702,01.154,552
2023-05-05T14:38:56,42.805,6.029,CST-1368DR,4306,4747,11704,01.153,552
2023-05-05T14:41:58,42.805,6.029,CST-1368DR,4306,4746,11701,01.154,552
2023-05-05T14:44:59,42.805,6.029,CST-1368DR,4306,4749,11708,01.152,551
2023-05-05T14:48:01,42.805,6.029,CST-1368DR,4306,4747,11704,01.153,552
2023-05-05T14:51:02,42.805,6.029,CST-1368DR,4306,4749,11708,01.152,552
2023-05-05T14:54:04,42.805,6.029,CST-1368DR,4306,4747,11704,01.153,551
2023-05-05T14:57:05,42.805,6.029,CST-1368DR,4306,4746,11701,01.154,551
2023-05-05T15:00:07,42.805,6.029,CST-1368DR,4306,4747,11705,01.153,552
2023-05-05T15:03:09,42.805,6.029,CST-1368DR,4306,4748,11707,01.152,552
2023-05-05T15:06:10,42.805,6.029,CST-1368DR,4306,4748,11708,01.152,552
2023-05-05T15:09:12,42.805,6.029,CST-1368DR,4306,4748,11708,01.152,552
2023-05-05T15:12:13,42.805,6.029,CST-1368DR,4306,4748,11706,01.153,552
2023-05-05T15:15:15,42.805,6.029,CST-1368DR,4306,4747,11704,01.153,551
2023-05-05T15:18:17,42.805,6.029,CST-1368DR,4306,4747,11704,01.153,552
2023-05-05T15:21:18,42.805,6.029,CST-1368DR,4306,4747,11704,01.153,551
2023-05-05T15:24:20,42.805,6.029,CST-1368DR,4306,4746,11702,01.154,552
2023-05-05T15:27:21,42.805,6.029,CST-1368DR,4306,4747,11704,01.153,552
2023-05-05T15:30:23,42.805,6.029,CST-1368DR,4306,4747,11705,01.153,551
2023-05-05T15:33:24,42.805,6.029,CST-1368DR,4306,4747,11704,01.153,551
2023-05-05T15:36:26,42.805,6.029,CST-1368DR,4306,4748,11706,01.153,551
2023-05-05T15:39:28,42.805,6.029,CST-1368DR,4306,4746,11703,01.154,552
2023-05-05T15:42:29,42.805,6.029,CST-1368DR,4306,4747,11705,01.153,551
2023-05-05T15:45:31,42.805,6.029,CST-1368DR,4306,4747,11705,01.153,552
2023-05-05T15:48:32,42.805,6.029,CST-1368DR,4306,4746,11702,01.154,552
2023-05-05T15:51:34,42.805,6.029,CST-1368DR,4306,4746,11701,01.154,552
2023-05-05T15:54:35,42.805,6.029,CST-1368DR,4306,4745,11700,01.155,552
2023-05-05T15:57:37,42.805,6.029,CST-1368DR,4306,4746,11702,01.154,551
2023-05-05T16:00:39,42.805,6.029,CST-1368DR,4306,4745,11700,01.155,552
2023-05-05T16:03:40,42.805,6.029,CST-1368DR,4306,4744,11698,01.156,551
2023-05-05T16:06:42,42.805,6.029,CST-1368DR,4306,4743,11696,01.156,552
2023-05-05T16:09:43,42.805,6.029,CST-1368DR,4306,4741,11690,01.158,552
2023-05-05T16:12:45,42.805,6.029,CST-1368DR,4306,4743,11695,01.157,552
2023-05-05T16:15:47,42.805,6.029,CST-1368DR,4306,4740,11688,01.159,552
2023-05-05T16:18:48,42.805,6.029,CST-1368DR,4306,4744,11697,01.156,552
2023-05-05T16:21:50,42.805,6.029,CST-1368DR,4306,4742,11692,01.158,551
2023-05-05T16:24:51,42.805,6.029,CST-1368DR,4306,4741,11690,01.158,552
2023-05-05T16:27:53,42.805,6.029,CST-1368DR,4306,4738,11683,01.161,552
2023-05-05T16:30:55,42.805,6.029,CST-1368DR,4306,4737,11679,01.162,551
2023-05-05T16:33:57,42.805,6.029,CST-1368DR,4306,4730,11662,01.168,552
2023-05-05T16:36:59,42.805,6.029,CST-1368DR,4306,4737,11679,01.162,552